Погода в Коськове

Россия / Санкт-Петербург и Ленинградская область     60°01′47″N   33°16′46″E
темп.,
°C
ветер,
м/с
пор.,
м/с
влажн.,
%
обл.,
%
осадки,
мм/ч
давл.,
гПа
погр.,
м
2 марта, вт
вт200:00+1зсз5139382 0.1 1007733
03:000зсз5148874 0.1 1008733
06:00−1зсз5138810 0.0 1007646
09:00−2зсз5128918 0.0 1008715
12:00−1сз6118698 0.0 1008792
15:000сз6118398 0.1 10101003
18:00−1сз5128196 0.1 10121069
21:00−4сз3138754 0.1 1015615
3 марта, ср
ср300:00−4зсз310900 0.0 1015315
03:00−3зсз412926 0.0 1015483
06:00−4зсз4129225 0.0 1014520
09:00−3зсз4119258 0.0 1014649
12:00−1зсз4987100 0.0 1012605
15:000з498797 0.1 1011874
18:00−1зюз3990100 0.0 1008613
21:00−1зюз41288100 0.0 1004638
4 марта, чт
чт400:00+1з61397100 3.6 999862
03:00+1з61297100 4.3 997831
06:00−2зсз4118897 0.6 995669
09:00−5зсз6138696 0.6 995844
12:00−3сз61188100 0.4 996845
15:00−3сз5985100 0.6 999957
18:00−5сз388699 0.1 1000486
21:00−8сз259582 0.1 1002113
5 марта, пт
пт500:00−8зсз229794 0.0 100364
03:00−8зсз269795 0.1 1004272
06:00−9зсз269698 0.1 1005291
09:00−8сз379299 0.3 1006455
12:00−6сз3586100 0.1 1007689
15:00−6зсз3484100 0.2 1008685
18:00−8сз2592100 0.1 1009295
21:00−10ссз379692 0.1 1011331
6 марта, сб
сб600:00−14ссв259387 0.1 1013191
03:00−16с229656 0.1 101379
06:00−16ссз12950 0.0 101324
09:00−14зюз12910 0.0 1013111
12:00−9зюз248417 0.0 1012486
15:00−7зюз357855 0.0 1011760
18:00−9ююз378879 0.0 1008216
21:00−10ю499073 0.0 1006350